1998-067UZ

Last updated on Fri Jan 13 2023 00:02:07 GMT+0000 (Coordinated Universal Time)

1 55182U 98067UZ 23012.16504302 .00049773 00000+0 83753-3 0 9998 2 55182 51.6442 21.3282 0002889 200.2052 279.2239 15.51220918 919

Satellite not in orbit

1998-067UZ